FENGYUN 1C DEB

Satellite information

Favourite Embed

Satellite Type and Status

DEBRISIN ORBIT

Key statistics

Satellite FENGYUN 1C DEB at a glance.

Uptime

9555

Days in orbit

Revolutions

≈ 14.3

Per day

Orbit

SSO

Sun Synchronous Orbit

Inclination

99.0

Latest

Satellite identification and parameters

Extended collection of information and parameters for FENGYUN 1C DEB.

Object identification

Identified? True

Debris? True

Object name: FENGYUN 1C DEB

International designator: 1999-025BHR

Object number (NORAD): 31163

Object ID (CCSDS): 31163

Country: PEOPLES REPUBLIC OF CHINA (PRC)

Current information (Y/N): Y

RCS size: SMALL

Orbital parameters

Period: 100.597 minutes

Inclination: 99.0029 deg

SMA: 7165.001 km

Apoapsis: 827.211 km

Periapsis: 746.521 km

RAAN: 23.8985 deg

Eccentricy: 0.0056308

Argument of periapsis: 69.1112 deg

Mean anomaly: 291.6086 deg

Mean motion: 14.31457211 rev/day

Mean motion (dot): 0.00000879 rev/day2

B* drag term: 0.00034285 1/REarth

Two-line elements (TLE)

Creation date: June 12, 2025, 2:20 a.m.

Reference frame: TEME

Reference center: EARTH

Epoch: June 11, 2025, 7:58 p.m. UTC

TLE line 0: 0 FENGYUN 1C DEB

TLE line 1: 1 31163U 99025BHR 25162.83219974 .00000879 00000-0 34285-3 0 9997

TLE line 2: 2 31163 99.0029 23.8985 0056308 69.1112 291.6086 14.31457211621103

Live tracking on map

Real-time ground track for satellite FENGYUN 1C DEB.

In-orbit conjunctions

A list of the most updated potential collisions computed for object FENGYUN 1C DEB.

Target Orbit TCA Probability of collision Miss distance Type
SL-8 R/B LEO 2025-02-10 00:00:49 0.0001089698 402.0 (m) ROCKET BODY
CZ-6A DEB LEO 2024-12-16 15:26:19 0.000262365 224.0 (m) DEBRIS
CZ-6A DEB LEO 2024-12-07 05:39:30 0.0001050145 198.0 (m) DEBRIS
CZ-6A DEB SSO 2024-09-25 15:30:00 0.0005006523 249.0 (m) DEBRIS

Associated space launch

Chinese polar orbiting meteorological satellite

FENGYUN 1C DEB was lifted into orbit during the mission ‘Long March 4B | Feng Yun 1C’, on board a Long March 4B space rocket.

The launch took place on May 10, 1999, 1:33 a.m. from Launch Complex 7.

For more information about the launch, click the button.

Launch to space Long March 4B | Feng Yun 1C
Long March 4B | Feng Yun 1C

Agency: N/A

Status: Launch Successful

Launch date: May 10, 1999, 1:33 a.m. UTC

Rocket: Long March 4B

Launch pad: Launch Complex 7

Location: Taiyuan Satellite Launch Center, People's Republic of China

...

Latest news about this satellite

There are no fresh news available about this satellite. Check back as we update our databases every day.


Newsletter sign-up

Weekly statistics, charts and insights to help you stay on top of the space industry.